Location: Unspecified
(41.1850°N, 73.2650°W)
Time: 20:58:03
(UTC+00:00)

MOS 1 Rocket - Pass Details

Date: 14 December 2025
Orbit: 609 x 814 km, 97.4° (Epoch: 12 January)

Event Time Altitude Azimuth Distance (km) Brightness Sun altitude
Rises 22:44:15 0° 168° (SSE) 3,115 6.7 -14.4°
Reaches altitude 10° 22:46:28 10° 169° (SSE) 2,229 6.0 -14.8°
Maximum altitude 22:51:24 85° 257° (WSW) 773 3.5 -15.7°
Drops below altitude 10° 22:56:39 10° 347° (NNW) 2,361 6.0 -16.6°
Sets 22:59:03 0° 348° (NNW) 3,314 6.8 -17.1°
